{"data":{"norad_id":55131,"epoch":"2026-09-19T19:30:58.917024Z","epoch_age_seconds":77639,"freshness":"FRESH","line1":"1 55131U 23002A   26262.81318191 -.00000034  00000+0  00000+0 0  9998","line2":"2 55131   3.9538  77.0670 0002903 230.3487  58.7227  1.00024760 13457","mean_motion":1.0002476,"eccentricity":0.0002903,"inclination_deg":3.9538,"raan_deg":77.067,"arg_perigee_deg":230.3487,"mean_anomaly_deg":58.7227,"bstar":0,"rev_number":1345,"period_min":1439.6435442584,"perigee_km":35843.726949414,"apogee_km":35868.248082108,"semimajor_km":42234.124515761,"source":"CELESTRAK","updated_at":"2026-09-20T09:00:35.309892Z"}}